Home > Weather > Fort Collins > Past weeks

Flag for U.S.A. Weather for the Past 2 Weeks in Fort Collins, Colorado, U.S.A.

Now
50 °F

Clear.


Feels Like: 43 °F
Forecast: 31 / 50 °F
Wind: 26 mph from Northwest

Location: Fort Collins-Loveland Municipal Airport

Current Time: Feb 13, 2016 at 9:05:43 PM

Latest Report: Feb 13, 2016 at 8:35 PM


Visibility: 10 mi

Pressure: 29.99 "Hg (24.96 "Hg at 1522m altitude)

Humidity: 28%

Dew point: 18 °F

Location of Fort CollinsLocation

Historic Weather in Fort Collins — Graph

°F

Fort Collins Temperature Yesterday

Maximum temperature yesterday: 48 °F (at 11:35 AM)
Minimum temperature yesterday: 30 °F (at 5:35 AM)
Average temperature yesterday: 38 °F

High & Low Weather Summary for the Past Weeks

 TemperatureHumidityPressure
High63 °F (Feb 10, 12:15 PM)100% (Jan 31, 5:55 AM)30.43 "Hg (Jan 31, 5:55 AM)
Low-2 °F (Feb 4, 5:35 AM)19% (Feb 10, 1:35 PM)29.47 "Hg (Jan 30, 1:55 PM)
Average29 °F66%30.08 "Hg
* Reported Jan 29 7:15 PM — Feb 13 7:55 PM, Fort Collins, Weather by CustomWeather, © 2016

Note: Actual official high and low records may vary slightly from our data, if they occured in-between our weather recording intervals... More about our weather records

Advertising

Fort Collins Weather History for the Previous 24 Hours

 ConditionsComfort  
Time TempWeatherWind HumidityBarometerVisibility
7:55 PM
Sat, Feb 13
48 °FClear.20 mph29%29.98 "Hg10 mi
7:35 PM46 °FClear.6 mph34%29.98 "Hg10 mi
6:55 PM52 °FClear.14 mph26%29.96 "Hg10 mi
6:35 PM54 °FClear.24 mph24%29.92 "Hg10 mi
6:15 PM54 °FClear.24 mph24%29.90 "Hg10 mi
5:55 PM54 °FClear.25 mph26%29.89 "Hg10 mi
5:35 PM54 °FClear.26 mph26%29.87 "Hg10 mi
5:15 PM54 °FSunny.17 mph26%29.89 "Hg10 mi
4:55 PM54 °FSunny.13 mph28%29.90 "Hg10 mi
4:35 PM55 °FSunny.15 mph28%29.93 "Hg10 mi
4:15 PM57 °FSunny.10 mph29%29.94 "Hg10 mi
3:55 PM57 °FSunny.9 mph31%29.95 "Hg10 mi
3:35 PM54 °FSunny.10 mph47%29.96 "Hg10 mi
2:55 PM45 °FSunny.No wind71%29.96 "Hg10 mi
2:35 PM45 °FSunny.3 mph81%29.95 "Hg10 mi
1:55 PM39 °FSunny.3 mph93%29.96 "Hg10 mi
1:35 PM39 °FSunny.No wind93%29.96 "Hg10 mi
1:15 PM37 °FPassing clouds.No wind87%29.97 "Hg9 mi
12:55 PM34 °FPartly sunny.3 mph87%29.98 "Hg4 mi
12:35 PM32 °FLow clouds.No wind93%30.00 "Hg3 mi
12:15 PM30 °FLow clouds.5 mph100%30.02 "Hg1 mi
11:55 AM30 °FLow clouds.6 mph100%30.02 "Hg1 mi
11:35 AM32 °FLow clouds.7 mph93%30.02 "Hg0 mi
11:15 AM30 °FLow clouds.5 mph93%30.03 "Hg0 mi
10:55 AM30 °FLow clouds.No wind93%30.05 "Hg0 mi
10:35 AM28 °FLow clouds.No wind100%30.05 "Hg0 mi
10:15 AM28 °FLow clouds.3 mph100%30.06 "Hg0 mi
9:55 AM28 °FLow clouds.No wind100%30.07 "Hg0 mi
9:35 AM30 °FLow clouds.No wind93%30.08 "Hg0 mi
9:15 AM28 °FLow clouds.No wind100%30.08 "Hg0 mi
8:55 AM28 °FLow clouds.No wind100%30.08 "Hg0 mi
8:35 AM28 °FLow clouds.No wind93%30.08 "Hg0 mi
8:15 AM28 °FLow clouds.No wind93%30.09 "Hg0 mi
7:55 AM28 °FLow clouds.5 mph100%30.09 "Hg0 mi
7:35 AM28 °FLow clouds.No wind100%30.10 "Hg0 mi
7:15 AM28 °FLow clouds.No wind93%30.09 "Hg0 mi
6:55 AM28 °FLow clouds.No wind100%30.10 "Hg0 mi
6:35 AM28 °FLow clouds.No wind100%30.10 "Hg0 mi
6:15 AM28 °FLow clouds.No wind100%30.10 "Hg0 mi
5:55 AM28 °FLow clouds.No wind100%30.10 "Hg0 mi
5:35 AM28 °FLow clouds.No wind100%30.11 "Hg0 mi
5:15 AM30 °FLow clouds.No wind93%30.12 "Hg0 mi
4:55 AM30 °FLow clouds.No wind93%30.12 "Hg0 mi
4:35 AM30 °FLow clouds.No wind93%30.12 "Hg0 mi
4:15 AM30 °FLow clouds.No wind93%30.13 "Hg0 mi
3:55 AM30 °FLow clouds.No wind93%30.14 "Hg0 mi
3:35 AM30 °FLow clouds.No wind93%30.14 "Hg0 mi
3:15 AM30 °FLow clouds.No wind93%30.15 "Hg1 mi
2:55 AM30 °FLow clouds.No wind93%30.16 "Hg1 mi
2:35 AM30 °FLow clouds.No wind93%30.17 "Hg1 mi
2:15 AM30 °FLow clouds.No wind93%30.17 "Hg1 mi
1:55 AM30 °FLow clouds.No wind93%30.18 "Hg1 mi
1:15 AM30 °FLow clouds.No wind93%30.18 "Hg0 mi
12:55 AM30 °FLow clouds.5 mph93%30.19 "Hg1 mi
12:35 AM30 °FLow clouds.6 mph93%30.21 "Hg0 mi
12:15 AM30 °FLow clouds.5 mph93%30.21 "Hg0 mi
11:55 PM
Fri, Feb 12
30 °FLow clouds.6 mph93%30.22 "Hg0 mi
11:35 PM30 °FLow clouds.8 mph93%30.22 "Hg0 mi
11:15 PM32 °FLow clouds.8 mph87%30.23 "Hg0 mi
10:55 PM32 °FLow clouds.7 mph87%30.24 "Hg0 mi
10:35 PM32 °FLow clouds.6 mph87%30.25 "Hg1 mi
10:15 PM32 °FLow clouds.6 mph87%30.25 "Hg4 mi
9:55 PM32 °FLow clouds.5 mph87%30.26 "Hg10 mi
9:35 PM34 °FOvercast.7 mph81%30.27 "Hg10 mi
9:15 PM34 °FPassing clouds.No wind81%30.27 "Hg10 mi
Weather by CustomWeather, © 2016

See weather overviewHow to use our weather pages